Other Surface Observations
Issued by NWS Missoula, MT

Home | Current Version | Previous Version | Text Only | Print | Product List | Glossary On
Versions: 1 2 3 4 5 6 7 8 9 10 11 12 13 14 15 16 17 18 19 20 21 22 23 24 25 26 27 28 29 30 31 32 33 34 35 36 37 38 39 40 41 42 43 44 45 46 47 48 49 50
000
SXUS55 KMSO 290323
OSOMSO
MONTANA AWOS SUMMARY
NATIONAL WEATHER SERVICE MISSOULA MT
823 PM MST SUN DEC 28 2014

Montana AWOS Reports

ROUNDUP     |KRPX 290315Z AUTO 34014G20KT 5SM M10/M14 A3013 RMK AO1 T10991143
LAUREL      |K6S8 290315Z AUTO 35005KT 2 1/2SM M09/M15 A3017 RMK AO1 T10881149




USA.gov is the U.S. government's official web portal to all federal, state and local government web resources and services.